Regional Weather Roundup
Issued by NWS Sioux Falls, SD

Home | Current Version | Previous Version | Graphics & Text | Print | Product List | Glossary On
Versions: 1 2 3 4 5 6 7 8 9 10 11 12 13 14 15 16 17 18 19 20 21 22 23 24 25 26 27 28 29 30 31 32 33 34 35 36 37 38 39 40 41 42 43 44 45 46 47 48 49 50
000
ASUS43 KFSD 300302
RWRFSD

WEATHER ROUNDUP FOR SE SOUTH DAKOTA/SW MINNESOTA/NW IOWA
NATIONAL WEATHER SERVICE SIOUX FALLS SD
1000 PM CDT FRI JUL 29 2016

NOTE: "FAIR" INDICATES FEW OR NO CLOUDS BELOW 12,000 FEET WITH NO
SIGNIFICANT WEATHER AND OR OBSTRUCTIONS TO VISIBILITY.


SDZ038>040-050-052>070-300400-
SOUTHEAST SOUTH DAKOTA

CITY           SKY/WX    TMP DP  RH WIND       PRES   REMARKS
BROOKINGS      CLEAR     67  58  72 SE6       30.06R
CHAMBERLAIN    CLOUDY    66  59  76 SE7       30.01R
HURON          PTCLDY    70  54  56 SE9       30.01R
MADISON        FAIR      63  59  88 E5        30.06S
MITCHELL       CLEAR     70  55  59 SE8       30.03S
SIOUX FALLS    PTCLDY    68  56  65 E8        30.05R
WINNER         FAIR      69  61  75 SE7       30.02S
YANKTON        CLEAR     70  55  60 CALM      30.02R
$$

MNZ071-072-080-081-089-090-097-098-300400-
SOUTHWEST MINNESOTA

CITY           SKY/WX    TMP DP  RH WIND       PRES   REMARKS
FAIRMONT       PTCLDY    63  55  77 N5        30.04R
JACKSON        CLEAR     61  55  82 CALM      30.07R
LUVERNE        CLEAR     63  54  72 CALM      30.06R
MARSHALL       CLEAR     65  59  81 CALM      30.06R
MONTEVIDEO     CLEAR     68  57  68 S3        30.06S
REDWOOD FALLS  CLEAR     69  56  62 CALM      30.04R
TRACY          CLEAR     64  59  86 CALM      30.07R
WINDOM         CLEAR     63  57  82 CALM      30.06R
WORTHINGTON    CLEAR     63  57  81 CALM      30.08R
$$

IAZ001>003-012>014-020>022-031-032-NEZ013-014-SDZ071-300400-
NORTHWEST IOWA

CITY           SKY/WX    TMP DP  RH WIND       PRES   REMARKS
CHEROKEE       CLEAR     67  64  90 SE3       30.05R
DENISON        CLOUDY    64  63  94 CALM      30.03R
ESTHERVILLE    CLEAR     61  59  93 N5        30.05R
LE MARS        MOCLDY    68  63  83 CALM      30.05R
SHELDON        CLEAR     63  61  94 NE5       30.05R
SIOUX CITY     CLEAR     73  62  68 E5        30.03R
SPENCER        CLEAR     63  57  81 NE6       30.05R
STORM LAKE     MOCLDY    66  61  82 CALM      30.06R
$$

ABBREVIATIONS USED IN REMARKS
   TC - TEMPERATURE IN CELSIUS
  WCI - WIND CHILL INDEX
   HX - HEAT INDEX
  VSB - VISIBILITY





USA.gov is the U.S. government's official web portal to all federal, state and local government web resources and services.